カタログに戻る

SL-8 R/B

運用中LEO
NORAD 22676·ROCKET BODY·🇷🇺 Russia

打ち上げ Jun 16, 1993 から Plesetsk Cosmodrome

Loading…

次のパス (今後24時間)

TLE

最新Source: Space-Track

元期: Sep 14, 2026, 18:50 UTC

1 22676U 93036B   26257.78488861  .00000087  00000-0  39556-4 0  9993
2 22676  74.0407 122.3229 0017560  40.5566 319.6891 14.35336856739159

AllMySatでSL-8 R/Bをリアルタイム追跡

Download on the App Store